ES2JT Weather Reports


Display with metric or nautical units.
time (UTC)temp
F
wind
direction
speed
MPH
gust
MPH
rain 1hr
in
rain 24hr
in
rain mn
in
humidity
%
barometer
mb
20260506191227 42 340 2.0 3.0 0.00 0.00 0.00 62 1008.7
20260506190326 42 340 3.0 4.0 0.00 0.00 0.00 62 1008.5
20260506185425 42 329 3.0 4.0 0.00 0.00 0.00 61 1008.5
20260506184526 43 341 3.0 4.0 0.00 0.00 0.00 60 1008.7
20260506183625 43 309 4.0 4.0 0.00 0.00 0.00 61 1008.4
20260506182726 43 333 3.0 4.0 0.00 0.00 0.00 61 1008.4
20260506181826 43 327 3.0 4.0 0.00 0.00 0.00 61 1008.3
20260506180925 44 317 3.0 4.0 0.00 0.00 0.00 60 1008.4
20260506180025 44 305 3.0 4.0 0.00 0.00 0.00 59 1008.3
20260506175125 45 298 3.0 4.0 0.00 0.00 0.00 57 1008.4
20260506174227 45 307 2.0 4.0 0.00 0.00 0.00 55 1008.3
20260506173325 46 301 2.0 4.0 0.00 0.00 0.00 53 1008.5
20260506172425 46 278 3.0 4.0 0.00 0.00 0.00 51 1008.6
20260506171525 46 315 2.0 3.0 0.00 0.00 0.00 50 1008.5
20260506170625 46 286 2.0 4.0 0.00 0.00 0.00 51 1008.4
20260506165727 47 323 2.0 4.0 0.00 0.00 0.00 50 1008.3
20260506164825 47 284 3.0 5.0 0.00 0.00 0.00 47 1008.8
20260506163926 48 299 3.0 5.0 0.00 0.00 0.00 46 1008.5
20260506163025 49 278 4.0 6.0 0.00 0.00 0.00 43 1008.5
20260506162126 49 302 5.0 7.0 0.00 0.00 0.00 41 1008.5
20260506161225 51 296 5.0 8.0 0.00 0.00 0.00 40 1008.6
20260506160326 51 304 4.0 7.0 0.00 0.00 0.00 42 1008.6
20260506155426 50 335 4.0 7.0 0.00 0.00 0.00 47 1008.7
20260506154735 49 301 4.0 7.0 0.00 0.00 0.00 49 1008.5
20260506153625 49 303 6.0 8.0 0.00 0.00 0.00 49 1008.7
20260506152726 50 294 5.0 8.0 0.00 0.00 0.00 47 1008.9
20260506152037 50 293 5.0 7.0 0.00 0.00 0.00 46 1009.0
20260506151139 50 298 5.0 8.0 0.00 0.00 0.00 48 1008.8
20260506150236 49 293 6.0 8.0 0.00 0.00 0.00 50 1009.1
20260506145125 49 283 6.0 7.0 0.00 0.00 0.00 50 1008.8
20260506144225 49 294 6.0 8.0 0.00 0.00 0.00 51 1009.0
20260506143326 49 295 6.0 8.0 0.00 0.00 0.00 50 1009.1
20260506142636 48 291 8.0 11.0 0.00 0.00 0.00 45 1009.0
20260506141525 50 286 7.0 8.0 0.00 0.00 0.00 43 1009.4
20260506140625 50 304 7.0 10.0 0.00 0.00 0.00 41 1009.4
20260506135725 51 274 8.0 11.0 0.00 0.00 0.00 39 1009.1
20260506134825 51 289 7.0 10.0 0.00 0.00 0.00 38 1009.2
20260506133925 53 285 7.0 10.0 0.00 0.00 0.00 34 1009.3
20260506133025 52 290 6.0 9.0 0.00 0.00 0.00 37 1009.0
20260506132126 51 310 8.0 11.0 0.00 0.00 0.00 40 1009.1
20260506131230 51 280 8.0 11.0 0.00 0.00 0.00 35 1009.0
20260506130325 52 285 8.0 11.0 0.00 0.00 0.00 32 1009.3
20260506125425 54 302 10.0 11.0 0.00 0.00 0.00 28 1009.0
20260506124525 54 297 8.0 10.0 0.00 0.00 0.00 31 1008.7
20260506123839 52 288 7.0 11.0 0.00 0.00 0.00 31 1008.8
20260506122727 53 313 9.0 11.0 0.00 0.00 0.00 30 1009.1
20260506121826 55 288 7.0 10.0 0.00 0.00 0.00 29 1009.1
20260506120926 54 305 8.0 11.0 0.00 0.00 0.00 30 1009.1
20260506120025 53 292 9.0 11.0 0.00 0.00 0.00 29 1009.0
20260506115336 54 289 10.0 12.0 0.00 0.00 0.00 28 1008.9
20260506114226 56 315 8.0 11.0 0.00 0.00 0.00 32 1009.0
20260506113325 56 321 8.0 11.0 0.00 0.00 0.00 32 1009.1
20260506112426 55 309 8.0 11.0 0.00 0.00 0.00 30 1009.2
20260506111525 54 297 9.0 11.0 0.00 0.00 0.00 28 1009.2
20260506110625 55 298 9.0 11.0 0.00 0.00 0.00 29 1009.2
20260506105725 54 296 9.0 11.0 0.00 0.00 0.00 29 1009.1
20260506104825 54 322 9.0 15.0 0.00 0.00 0.00 31 1009.3
20260506104139 53 279 10.0 13.0 0.00 0.00 0.00 31 1009.2
20260506103025 53 282 10.0 14.0 0.00 0.00 0.00 33 1009.0
20260506102125 53 285 10.0 11.0 0.00 0.00 0.00 32 1009.2
20260506101226 53 277 9.0 11.0 0.00 0.00 0.00 34 1009.1
20260506100325 53 306 9.0 13.0 0.00 0.00 0.00 39 1009.1
20260506095425 52 291 10.0 13.0 0.00 0.00 0.00 37 1009.0
20260506094525 52 294 9.0 13.0 0.00 0.00 0.00 40 1009.1
20260506093625 51 302 11.0 12.0 0.00 0.00 0.00 40 1008.9
20260506092727 51 281 11.0 15.0 0.00 0.00 0.00 38 1009.0
20260506092035 52 289 9.0 15.0 0.00 0.00 0.00 39 1008.9
20260506091138 51 288 9.0 12.0 0.00 0.00 0.00 40 1008.9
20260506090025 51 259 11.0 14.0 0.00 0.00 0.00 38 1008.5
20260506085125 51 302 10.0 14.0 0.00 0.00 0.00 42 1008.8
20260506084227 51 289 8.0 11.0 0.00 0.00 0.00 46 1008.3
20260506083325 51 286 8.0 11.0 0.00 0.00 0.00 45 1008.6
20260506082425 51 294 8.0 11.0 0.00 0.00 0.00 42 1008.3
20260506081525 51 286 8.0 12.0 0.00 0.00 0.00 43 1008.5
20260506080625 50 300 8.0 10.0 0.00 0.00 0.00 39 1008.5
20260506073239 49 303 9.0 11.0 0.00 0.00 0.00 44 1008.3
20260506072125 49 294 9.0 11.0 0.00 0.00 0.00 47 1007.9
20260506071226 48 286 10.0 12.0 0.00 0.00 0.00 52 1008.0
20260506070325 49 273 9.0 11.0 0.00 0.00 0.00 55 1007.9
20260506061825 49 236 7.0 9.0 0.00 0.00 0.00 71 1007.9
20260506061135 46 276 8.0 11.0 0.00 0.00 0.00 73 1007.7
20260506050625 45 264 10.0 14.0 0.00 0.00 0.00 83 1007.3
20260506044825 43 261 8.0 12.0 0.00 0.00 0.00 90 1007.2
20260506043925 42 325 9.0 12.0 0.00 0.00 0.00 92 1007.0
20260506043025 42 297 9.0 12.0 0.00 0.00 0.00 93 1006.8
20260506042125 41 242 7.0 12.0 0.00 0.00 0.00 94 1007.0
20260506041440 41 232 7.0 10.0 0.00 0.00 0.00 94 1006.7
20260506040325 41 235 6.0 8.0 0.00 0.00 0.00 95 1006.5
20260506035425 41 240 6.0 11.0 0.00 0.00 0.00 96 1006.5
20260506034525 41 294 8.0 12.0 0.00 0.00 0.00 98 1006.4
20260506033625 40 260 8.0 12.0 0.00 0.00 0.00 99 1006.4
20260506032726 39 267 6.0 8.0 0.00 0.00 0.00 99 1006.2
20260506031825 39 265 6.0 8.0 0.00 0.00 0.00 99 1006.2
20260506030926 38 243 4.0 8.0 0.00 0.00 0.00 99 1006.3
20260506030025 36 250 3.0 4.0 0.00 0.00 0.00 97 1005.9
20260506025125 35 232 2.0 4.0 0.00 0.00 0.00 97 1005.9
20260506024227 34 223 2.0 3.0 0.00 0.00 0.00 97 1005.8
20260506023325 34 251 2.0 4.0 0.00 0.00 0.00 97 1005.7
20260506022638 34 260 2.0 3.0 0.00 0.00 0.00 97 1005.5
20260506021525 34 208 3.0 4.0 0.00 0.00 0.00 97 1005.6
20260506020626 34 221 2.0 2.0 0.00 0.00 0.00 97 1005.5
20260506015725 34 212 2.0 2.0 0.00 0.00 0.00 97 1005.4
20260506014825 35 248 2.0 2.0 0.00 0.00 0.00 96 1005.1
20260506013925 35 275 2.0 3.0 0.00 0.00 0.00 96 1005.0
20260506013237 36 269 3.0 4.0 0.00 0.00 0.00 95 1005.1
20260506012335 36 269 3.0 4.0 0.00 0.00 0.00 95 1005.3
20260506011226 37 261 3.0 4.0 0.00 0.00 0.00 96 1005.0
20260506010325 37 274 4.0 4.0 0.00 0.00 0.00 99 1005.0
20260506005426 37 275 4.0 5.0 0.00 0.00 0.00 99 1004.9
20260506004739 37 257 4.0 5.0 0.00 0.00 0.00 99 1005.0
20260506003626 38 256 4.0 5.0 0.00 0.00 0.00 99 1004.7
20260506002727 38 271 4.0 5.0 0.00 0.00 0.00 98 1004.7
20260506001826 38 234 4.0 6.0 0.00 0.00 0.00 98 1004.7
20260506000925 38 262 3.0 5.0 0.00 0.00 0.00 98 1004.6
20260506000026 38 258 3.0 5.0 0.00 0.00 0.00 98 1004.4
20260505235125 39 270 4.0 5.0 0.00 0.00 0.00 97 1004.4
20260505234441 39 264 4.0 7.0 0.00 0.00 0.00 97 1004.2
20260505233325 39 254 5.0 8.0 0.00 0.00 0.00 97 1004.2
20260505232635 39 263 5.0 8.0 0.00 0.00 0.00 97 1004.1
20260505231526 39 282 5.0 7.0 0.00 0.05 0.00 95 1004.1
20260505230625 39 267 6.0 9.0 0.00 0.05 0.00 95 1004.2
20260505225726 40 276 7.0 9.0 0.00 0.05 0.00 95 1004.2
20260505225035 40 263 7.0 9.0 0.00 0.05 0.00 94 1004.0
20260505223925 40 275 6.0 11.0 0.00 0.05 0.00 94 1004.2
20260505223025 40 274 7.0 8.0 0.00 0.05 0.00 93 1004.0
20260505222126 40 266 7.0 10.0 0.00 0.05 0.00 93 1003.8
20260505221227 40 286 8.0 11.0 0.00 0.05 0.00 93 1003.8
20260505220326 40 280 8.0 11.0 0.00 0.05 0.00 92 1003.7
20260505215425 40 273 8.0 11.0 0.00 0.05 0.00 91 1003.8
20260505214525 40 292 8.0 11.0 0.00 0.05 0.00 90 1003.5
20260505213626 40 259 8.0 10.0 0.00 0.05 0.00 90 1003.7
20260505212941 40 271 8.0 10.0 0.00 0.05 0.00 90 1003.6
20260505211826 40 266 10.0 14.0 0.00 0.05 0.00 90 1003.6
20260505210925 40 277 9.0 11.0 0.00 0.05 0.00 91 1003.4
20260505210025 40 277 9.0 14.0 0.00 0.05 0.00 92 1003.6
20260505205125 40 275 10.0 12.0 0.00 0.05 0.05 93 1003.4
20260505204225 40 300 9.0 11.0 0.00 0.05 0.05 94 1003.3
20260505203325 40 285 8.0 11.0 0.00 0.05 0.05 94 1003.1
20260505202426 40 277 6.0 8.0 0.00 0.05 0.05 94 1003.2
20260505201525 40 260 10.0 12.0 0.00 0.05 0.05 94 1003.1
20260505200625 41 245 10.0 14.0 0.00 0.05 0.05 93 1002.8
20260505195725 41 271 11.0 14.0 0.00 0.05 0.05 92 1002.8
20260505195037 41 273 10.0 12.0 0.00 0.05 0.05 92 1003.0
20260505193926 41 281 12.0 14.0 0.00 0.05 0.05 89 1002.9
20260505193025 41 259 11.0 16.0 0.00 0.05 0.05 87 1003.0
20260505192338 41 280 12.0 17.0 0.00 0.05 0.05 85 1002.7